FW9372 Weather Reports


Display with metric or nautical units.
time (UTC)temp
F
wind
direction
speed
MPH
gust
MPH
rain 1hr
in
rain 24hr
in
rain mn
in
humidity
%
barometer
mb
20260506134559 50 0 0.0 1.0 0.00 0.92 0.17 85 1011.1
20260506133107 49 0 0.0 0.0 0.00 0.92 0.17 90 1010.9
20260506131556 48 0 0.0 0.0 0.00 0.92 0.17 95 1011.0
20260506130106 47 0 0.0 0.0 0.00 0.92 0.17 97 1010.7
20260506124600 46 0 0.0 0.0 0.00 0.92 0.17 98 1010.5
20260506123058 46 0 0.0 0.0 0.00 0.92 0.17 98 1010.3
20260506121614 46 0 0.0 0.0 0.00 0.92 0.17 98 1010.2
20260506120119 45 0 0.0 0.0 0.00 0.92 0.17 98 1010.3
20260506114558 45 0 0.0 0.0 0.00 0.92 0.17 98 1010.0
20260506113106 45 0 0.0 0.0 0.00 0.92 0.17 98 1009.9
20260506111600 45 0 0.0 0.0 0.00 0.92 0.17 98 1009.7
20260506110058 46 0 0.0 0.0 0.00 0.92 0.17 98 1009.4
20260506104559 46 0 0.0 1.0 0.00 0.92 0.17 98 1009.0
20260506103059 47 0 0.0 7.0 0.00 0.92 0.17 98 1008.9
20260506101558 47 0 0.0 2.0 0.00 0.92 0.17 98 1008.7
20260506100057 48 0 0.0 1.0 0.00 0.92 0.17 98 1008.6
20260506094558 48 0 0.0 1.0 0.00 0.92 0.17 98 1008.2
20260506093056 48 0 0.0 0.0 0.00 0.92 0.17 98 1007.8
20260506091559 48 0 0.0 0.0 0.00 0.92 0.17 98 1008.0
20260506090056 48 0 0.0 0.0 0.01 0.92 0.17 98 1007.6
20260506084555 48 0 0.0 0.0 0.01 0.92 0.17 98 1007.6
20260506083058 48 0 0.0 0.0 0.01 0.92 0.17 98 1007.7
20260506081555 48 0 0.0 1.0 0.01 0.92 0.17 98 1007.2
20260506073101 49 0 0.0 1.0 0.03 0.91 0.16 98 1006.2
20260506071602 49 0 0.0 6.0 0.04 0.91 0.16 98 1006.6
20260506070117 49 0 0.0 1.0 0.08 0.91 0.16 98 1006.8
20260506061603 50 0 0.0 7.0 0.10 0.87 0.12 97 1006.4
20260506050114 52 0 0.0 8.0 0.09 0.75 0.00 96 1005.1
20260506044602 53 21 0.0 4.0 0.10 0.74 0.74 96 1005.1
20260506043056 55 0 0.0 6.0 0.10 0.70 0.70 96 1005.1
20260506041600 56 0 0.0 4.0 0.08 0.67 0.67 96 1004.7
20260506040101 58 0 0.0 1.0 0.07 0.66 0.66 96 1004.6
20260506034556 59 0 0.0 0.0 0.06 0.64 0.64 97 1004.6
20260506033056 60 0 0.0 0.0 0.02 0.60 0.60 96 1004.4
20260506031602 60 0 0.0 7.0 0.01 0.58 0.58 96 1004.2
20260506030112 60 0 0.0 2.0 0.01 0.58 0.58 96 1004.3
20260506024556 60 0 0.0 2.0 0.01 0.58 0.58 96 1004.4
20260506023057 60 0 0.0 0.0 0.01 0.58 0.58 96 1004.3
20260506021558 60 0 0.0 5.0 0.01 0.58 0.58 97 1004.6
20260506020055 60 0 0.0 0.0 0.01 0.58 0.58 97 1004.7
20260506014603 61 0 0.0 1.0 0.00 0.57 0.57 96 1005.0
20260506013100 61 214 0.0 8.0 0.01 0.57 0.57 96 1005.0
20260506011558 61 0 0.0 16.0 0.01 0.57 0.57 97 1004.7
20260506010059 62 248 0.0 3.0 0.01 0.57 0.57 98 1004.7
20260506004626 62 0 0.0 0.0 0.01 0.57 0.57 98 1004.4
20260506003059 62 0 0.0 0.0 0.00 0.56 0.56 98 1004.7
20260506001601 62 0 0.0 0.0 0.00 0.56 0.56 97 1004.6
20260506000058 62 0 0.0 0.0 0.01 0.56 0.56 97 1004.5
20260505234614 62 0 0.0 0.0 0.03 0.56 0.56 97 1004.4
20260505233057 62 0 0.0 0.0 0.11 0.56 0.56 97 1004.5
20260505231558 62 0 0.0 0.0 0.15 0.56 0.56 97 1004.7
20260505230058 62 0 0.0 0.0 0.14 0.55 0.55 97 1005.0
20260505224558 62 0 0.0 0.0 0.14 0.52 0.52 97 1005.1
20260505223104 62 0 0.0 0.0 0.08 0.44 0.44 96 1005.2
20260505221610 62 0 0.0 0.0 0.10 0.41 0.41 96 1005.0
20260505220138 62 0 0.0 0.0 0.13 0.41 0.41 97 1004.8
20260505214616 62 0 0.0 0.0 0.15 0.39 0.39 96 1005.0
20260505213056 62 0 0.0 0.0 0.12 0.36 0.36 96 1004.9
20260505211611 62 0 0.0 0.0 0.07 0.31 0.31 96 1005.1
20260505210056 62 0 0.0 0.0 0.04 0.28 0.28 95 1005.1
20260505204553 62 0 0.0 0.0 0.01 0.24 0.24 95 1005.2
20260505203055 62 0 0.0 0.0 0.03 0.24 0.24 95 1005.6
20260505201607 62 0 0.0 0.0 0.07 0.24 0.24 95 1005.8
20260505200106 62 0 0.0 0.0 0.14 0.24 0.24 95 1005.9
20260505194607 62 0 0.0 0.0 0.18 0.23 0.23 94 1006.3
20260505193058 62 0 0.0 0.0 0.18 0.21 0.21 94 1006.5
20260505191558 62 0 0.0 0.0 0.15 0.17 0.17 93 1006.7
20260505184558 63 0 0.0 0.0 0.03 0.04 0.04 90 1006.9
20260505183056 64 0 0.0 1.0 0.03 0.03 0.03 88 1006.9
20260505181559 64 0 0.0 1.0 0.02 0.02 0.02 86 1007.0
20260505174558 65 0 0.0 0.0 0.01 0.01 0.01 84 1007.1
20260505173056 65 0 0.0 0.0 0.00 0.00 0.00 86 1007.1
20260505171559 64 0 0.0 0.0 0.00 0.00 0.00 85 1007.7
20260505170056 64 0 0.0 1.0 0.00 0.00 0.00 83 1007.4
20260505164623 65 0 0.0 7.0 0.00 0.00 0.00 78 1007.7
20260505163059 65 205 0.0 7.0 0.00 0.00 0.00 77 1007.7
20260505161559 65 0 0.0 0.0 0.00 0.00 0.00 76 1007.6
20260505160109 65 233 0.0 5.0 0.00 0.00 0.00 76 1007.5
20260505153100 65 0 0.0 3.0 0.00 0.00 0.00 75 1007.6
20260505151611 65 0 0.0 7.0 0.00 0.00 0.00 74 1007.4
20260505140112 63 0 0.0 0.0 0.00 0.00 0.00 77 1007.4